DW5683 Weather Reports


time (UTC)temp
C
wind
direction
speed
KPH
gust
KPH
rain 1hr
cm
rain 24hr
cm
rain mn
cm
humidity
%
barometer
mb
20260903224544 22 0 3.2 9.7 0.00 0.00 0.00 62 1011.6
20260903223046 22 184 3.2 11.3 0.00 0.00 0.00 62 1011.6
20260903221548 23 0 4.8 11.3 0.00 0.00 0.00 61 1012.0
20260903220050 23 197 1.6 11.3 0.00 0.00 0.00 61 1012.1
20260903214545 23 188 4.8 14.5 0.00 0.00 0.00 61 1012.3
20260903213043 22 225 4.8 14.5 0.00 0.00 0.00 63 1012.5
20260903211548 22 200 3.2 16.1 0.00 0.00 0.00 62 1012.7
20260903210048 23 228 4.8 16.1 0.00 0.00 0.00 61 1012.7
20260903204542 23 217 4.8 17.7 0.00 0.00 0.00 59 1012.7
20260903203053 23 180 4.8 16.1 0.00 0.00 0.00 59 1012.7
20260903201550 23 188 4.8 16.1 0.00 0.00 0.00 60 1012.7
20260903200049 23 218 3.2 12.9 0.00 0.00 0.00 60 1012.9
20260903194544 23 209 4.8 14.5 0.00 0.00 0.00 61 1013.1
20260903193049 23 194 3.2 14.5 0.00 0.00 0.00 60 1013.2
20260903191548 23 182 1.6 11.3 0.00 0.00 0.00 61 1013.4
20260903190044 23 187 3.2 9.7 0.00 0.00 0.00 62 1013.6
20260903184543 22 0 1.6 11.3 0.00 0.00 0.00 63 1013.7
20260903183050 22 121 3.2 12.9 0.00 0.00 0.00 62 1013.8
20260903181547 21 138 1.6 11.3 0.00 0.00 0.00 65 1014.1
20260903180109 21 0 3.2 11.3 0.00 0.00 0.00 66 1014.0
20260903174542 20 137 1.6 11.3 0.00 0.00 0.00 69 1014.0
20260903173050 18 128 0.0 6.4 0.00 0.00 0.00 73 1014.2
20260903171550 18 128 1.6 11.3 0.00 0.00 0.00 74 1014.1
20260903170041 17 132 1.6 11.3 0.00 0.00 0.00 75 1014.3
20260903164547 17 134 1.6 6.4 0.00 0.00 0.00 75 1014.3
20260903163047 17 134 0.0 4.8 0.00 0.00 0.00 77 1014.3
20260903161541 17 0 0.0 4.8 0.00 0.00 0.00 77 1014.3
20260903160046 17 0 0.0 11.3 0.00 0.00 0.00 78 1014.4
20260903154545 16 116 1.6 12.9 0.00 0.00 0.00 78 1014.5
20260903153045 16 123 3.2 12.9 0.00 0.00 0.00 78 1014.6
20260903151552 16 0 0.0 8.0 0.00 0.00 0.00 80 1014.6
20260903150049 16 142 1.6 9.7 0.00 0.00 0.00 81 1014.5
20260903144543 15 153 0.0 8.0 0.00 0.00 0.00 81 1014.4
20260903143048 15 153 0.0 4.8 0.00 0.00 0.00 82 1014.6
20260903141549 15 0 1.6 9.7 0.00 0.00 0.00 82 1014.6
20260903140049 15 157 0.0 4.8 0.00 0.00 0.00 82 1014.4
20260903134542 15 0 0.0 4.8 0.00 0.00 0.00 82 1014.3
20260903133042 15 0 0.0 4.8 0.00 0.00 0.00 81 1014.3
20260903131550 15 0 0.0 3.2 0.00 0.00 0.00 81 1014.3
20260903130109 15 0 0.0 8.0 0.00 0.00 0.00 81 1014.4
20260903124543 15 0 0.0 4.8 0.00 0.00 0.00 81 1014.3
20260903123049 15 161 0.0 8.0 0.00 0.00 0.00 81 1014.3
20260903121550 15 0 0.0 6.4 0.00 0.00 0.00 81 1014.5
20260903120048 15 0 0.0 3.2 0.00 0.00 0.00 81 1014.5
20260903114541 15 162 0.0 6.4 0.00 0.00 0.00 81 1014.7
20260903113043 15 162 0.0 6.4 0.00 0.00 0.00 82 1014.9
20260903111552 15 0 1.6 8.0 0.00 0.00 0.00 81 1014.8
20260903110109 15 0 0.0 8.0 0.00 0.00 0.00 80 1014.9
20260903104542 15 0 0.0 4.8 0.00 0.00 0.00 80 1014.8
20260903103043 15 0 0.0 11.3 0.00 0.00 0.00 79 1014.7
20260903101541 16 177 0.0 9.7 0.00 0.00 0.00 78 1014.7
20260903100049 16 181 1.6 6.4 0.00 0.00 0.00 76 1014.8
20260903094552 16 182 0.0 3.2 0.00 0.00 0.00 75 1014.9
20260903093041 16 0 0.0 4.8 0.00 0.00 0.00 74 1014.9
20260903091548 16 182 0.0 8.0 0.00 0.00 0.00 74 1015.0
20260903090048 16 0 0.0 4.8 0.00 0.00 0.00 74 1015.0
20260903084542 16 0 0.0 4.8 0.00 0.00 0.00 73 1014.9
20260903083042 16 188 1.6 6.4 0.00 0.00 0.00 74 1015.0
20260903081549 16 0 0.0 0.0 0.00 0.00 0.00 74 1015.0
20260903080048 15 0 0.0 0.0 0.00 0.00 0.00 75 1015.0
20260903074544 16 0 0.0 0.0 0.00 0.00 0.00 73 1015.0
20260903073049 16 0 0.0 0.0 0.00 0.00 0.00 72 1015.0
20260903071548 17 0 0.0 3.2 0.00 0.00 0.00 70 1015.1
20260903070041 17 0 0.0 3.2 0.00 0.00 0.00 69 1015.0
20260903064541 17 0 0.0 0.0 0.00 0.00 0.00 69 1014.9
20260903063044 17 0 0.0 0.0 0.00 0.00 0.00 68 1015.0
20260903061551 17 0 0.0 0.0 0.00 0.00 0.00 67 1014.9
20260903060053 17 0 0.0 0.0 0.00 0.00 0.00 66 1015.0
20260903054549 18 0 0.0 0.0 0.00 0.00 0.00 65 1015.1
20260903053100 18 0 0.0 0.0 0.00 0.00 0.00 63 1015.2
20260903051543 18 193 0.0 3.2 0.00 0.00 0.00 63 1015.0
20260903050049 18 0 0.0 0.0 0.00 0.00 0.00 64 1014.8
20260903044552 18 0 0.0 0.0 0.00 0.00 0.00 66 1014.9
20260903043041 18 0 0.0 0.0 0.00 0.00 0.00 69 1015.0
20260903041548 18 0 0.0 0.0 0.00 0.00 0.00 68 1014.8
20260903040047 20 0 0.0 0.0 0.00 0.00 0.00 65 1014.6
20260903034542 20 0 0.0 0.0 0.00 0.00 0.00 60 1014.4
20260903033101 20 0 0.0 4.8 0.00 0.00 0.00 58 1014.3
20260903031544 21 0 0.0 6.4 0.00 0.00 0.00 59 1014.1
20260903030044 21 192 0.0 6.4 0.00 0.00 0.00 58 1014.1
20260903024545 22 192 3.2 8.0 0.00 0.00 0.00 57 1014.1
20260903023042 22 198 0.0 8.0 0.00 0.00 0.00 55 1014.3
20260903021553 23 0 0.0 8.0 0.00 0.00 0.00 53 1014.4
20260903020043 23 198 1.6 9.7 0.00 0.00 0.00 52 1014.3
20260903014547 24 198 3.2 12.9 0.00 0.00 0.00 50 1014.4
20260903013041 25 196 4.8 12.9 0.00 0.00 0.00 50 1014.4
20260903011544 25 205 3.2 11.3 0.00 0.00 0.00 48 1014.4
20260903010048 25 192 6.4 16.1 0.00 0.00 0.00 48 1014.4
20260903004547 25 171 1.6 12.9 0.00 0.00 0.00 48 1014.5
20260903003041 25 186 4.8 20.9 0.00 0.00 0.00 46 1014.6
20260903001542 26 183 6.4 14.5 0.00 0.00 0.00 45 1014.7
20260903000053 26 198 3.2 12.9 0.00 0.00 0.00 46 1014.9
20260902234546 26 194 6.4 24.1 0.00 0.00 0.00 46 1014.9
20260902233044 26 0 1.6 16.1 0.00 0.00 0.00 46 1014.9
20260902231549 26 204 6.4 14.5 0.00 0.00 0.00 46 1015.0
20260902230043 26 194 4.8 14.5 0.00 0.00 0.00 46 1015.1